Location: Sternwarte auf dem Internationalen Platz Vogelsang IP
(50.5721°N, 6.4398°E)
Time: 12:06:23
(UTC+01:00)

ACS3 Solar Sail - Pass Details

Date: 18 November 2025
Orbit: 888 x 1003 km, 97.3° (Epoch: 07 December)

Event Time Altitude Azimuth Distance (km) Brightness Sun altitude
Rises 04:08:17 0° 12° (NNE) 3,564 5.0 -35.4°
Reaches altitude 10° 04:10:41 10° 12° (NNE) 2,633 4.3 -35.0°
Enters shadow 04:13:07 27° 11° (NNE) 1,730 3.2 -34.7°
